[[{"header":{"parameterUnit":"m.s-1","parameterCategory":1,"la1":30.2991,"la2":30.254,"lo1":-89.0895,"lo2":-89.0444,"dy":0.0017,"dx":0.0017,"nx":28,"ny":28,"refTime":"2024-03-25T21:00:00:Z","depth":0,"parameterNumber":2,"parameterNumberName":"U-component_of_WINDS"},"data":[0,0,0,0,0,0,0,0,0,0,0,0,0,0,0,0,0,0,0,0,0,0,0,0,0,0,0,0,0,0,0,0,0,0,0,0,0,0,0,0,0,0,0,0,0,0,0,0,0,0,0,0,0,0,0,0,0,0,-3.6354,-3.6355,0,-3.6466,-3.6467,-3.6468,-3.652,-3.652,-3.652,-3.652,-3.6631,-3.6634,-3.6637,0,0,0,0,0,0,0,0,0,0,0,0,0,-3.6181,-3.6184,-3.6353,-3.6355,-3.6356,-3.6465,-3.6467,-3.6468,-3.652,-3.652,-3.652,-3.652,-3.663,-3.6634,-3.6638,0,0,0,0,0,0,0,0,0,0,0,0,0,-3.6271,-3.6185,-3.6353,-3.6395,-3.64,-3.6465,-3.6467,-3.6469,-3.652,-3.652,-3.652,-3.652,-3.6629,-3.6634,-3.6638,-3.6669,0,0,-3.6652,-3.6654,0,0,0,0,0,0,0,0,-3.6266,-3.6277,-3.6388,-3.6392,-3.6398,-3.6479,-3.6447,-3.6536,-3.652,-3.6474,-3.652,-3.652,-3.658,-3.6589,-3.661,-3.6674,-3.6679,-3.6652,-3.6655,-3.6657,-3.6658,0,0,0,0,0,0,0,-3.626,-3.6273,-3.6398,-3.6389,-3.6396,-3.6408,-3.642,-3.6464,-3.6527,-3.6478,-3.6482,-3.6495,-3.6583,-3.6606,-3.6613,-3.668,-3.6652,-3.6656,-3.6659,-3.6661,-3.6775,-3.6775,0,0,0,0,0,0,-3.6247,-3.6267,-3.6394,-3.6401,-3.633,-3.6411,-3.6425,-3.6453,-3.6526,-3.6537,-3.6495,-3.6497,-3.6598,-3.6608,-3.6617,-3.6659,-3.6657,-3.6661,-3.6664,-3.6775,-3.6775,-3.6775,0,0,0,0,0,0,-3.6243,-3.6258,-3.639,-3.6335,-3.6353,-3.6414,-3.6445,-3.6455,-3.6478,-3.6539,-3.655,-3.6507,-3.6598,-3.6611,-3.6656,-3.6663,-3.6663,-3.6668,-3.6774,-3.6775,-3.6775,-3.674,0,0,0,0,0,0,-3.6238,-3.6256,-3.6269,-3.6335,-3.6356,-3.6427,-3.6445,-3.6457,-3.6486,-3.649,-3.6553,-3.6563,-3.6599,-3.6649,-3.666,-3.6669,-3.6671,-3.6774,-3.6775,-3.6775,-3.6741,-3.674,-3.6738,0,0,0,0,0,-3.6232,-3.6254,-3.6269,-3.6284,-3.6373,-3.6427,-3.6439,-3.6481,-3.6486,-3.6499,-3.6539,-3.6561,-3.666,-3.6653,-3.6666,-3.6677,-3.6774,-3.6774,-3.6775,-3.6742,-3.674,-3.6738,0,0,0,0,0,0,-3.6185,-3.6263,-3.6281,-3.6326,-3.637,-3.6436,-3.6454,-3.6477,-3.652,-3.6521,-3.657,-3.6584,-3.6625,-3.6655,-3.6646,-3.671,-3.6719,-3.6722,-3.6689,-3.6688,-3.6686,-3.6678,-3.6675,0,0,0,0,0,-3.618,-3.6219,-3.6284,-3.6317,-3.6339,-3.6392,-3.6417,-3.6446,-3.6493,-3.6511,-3.6554,-3.6598,-3.6639,-3.6665,-3.6706,-3.6746,-3.676,-3.676,-3.6758,-3.6757,-3.6759,-3.6783,-3.6783,-3.6778,-3.6778,-3.6778,0,0,-3.617,-3.6218,-3.6239,-3.6309,-3.6347,-3.6385,-3.6407,-3.6446,-3.6475,-3.6517,-3.6563,-3.6595,-3.6647,-3.669,-3.6711,-3.6717,-3.6764,-3.6757,-3.6756,-3.6759,-3.6783,-3.6784,-3.6784,-3.6778,-3.6778,-3.6778,0,0,-3.6172,-3.6212,-3.6244,-3.6281,-3.6338,-3.6374,-3.6381,-3.6444,-3.6468,-3.6515,-3.6547,-3.6581,-3.6651,-3.6687,-3.6715,-3.673,-3.6753,-3.6742,-3.6734,-3.6757,-3.6757,-3.6758,-3.6764,-3.6765,-3.6744,-3.6744,-3.6744,0,-3.6152,-3.6212,-3.6257,-3.6295,-3.6325,-3.6366,-3.6398,-3.6432,-3.6498,-3.6518,-3.6524,-3.6613,-3.6651,-3.6703,-3.6706,-3.6727,-3.6737,-3.6735,-3.6754,-3.6755,-3.6756,-3.6762,-3.6764,-3.6743,-3.6743,-3.6743,-3.6743,0,-3.6185,-3.6225,-3.6244,-3.6309,-3.6341,-3.6376,-3.6426,-3.6453,-3.6478,-3.6513,-3.656,-3.6607,-3.6659,-3.6673,-3.6698,-3.6729,-3.6731,-3.6744,-3.6754,-3.6754,-3.6761,-3.6764,-3.674,-3.6741,-3.6741,-3.6742,0,0,-3.616,-3.625,-3.6256,-3.6287,-3.6352,-3.6384,-3.6421,-3.6473,-3.6495,-3.6539,-3.6571,-3.6629,-3.6643,-3.6674,-3.6703,-3.6723,-3.6733,-3.6734,-3.6736,-3.6733,-3.677,-3.6759,-3.6761,-3.6748,-3.6749,-3.6749,-3.6765,0,-3.6171,-3.624,-3.6282,-3.6333,-3.6371,-3.641,-3.6442,-3.6486,-3.6519,-3.6556,-3.6592,-3.6633,-3.6647,-3.6667,-3.6688,-3.6727,-3.6741,-3.6726,-3.6777,-3.6779,-3.6764,-3.6765,-3.6754,-3.6767,-3.6768,-3.6769,-3.6769,0,-3.6193,-3.6238,-3.6293,-3.6356,-3.6373,-3.6401,-3.6452,-3.6487,-3.6536,-3.6559,-3.6595,-3.6624,-3.6664,-3.667,-3.6725,-3.6714,-3.6738,-3.676,-3.6762,-3.6768,-3.6774,-3.6771,-3.6772,-3.6774,-3.6774,-3.6773,-3.6773,0,-3.617,-3.6244,-3.6287,-3.6312,-3.6385,-3.6404,-3.6435,-3.6485,-3.6514,-3.6558,-3.6577,-3.6625,-3.6651,-3.6687,-3.6728,-3.6729,-3.6779,-3.6789,-3.6799,-3.6798,-3.6808,-3.6807,-3.6813,-3.6822,-3.6822,-3.6822,-3.6822,0,-3.6178,-3.621,-3.6278,-3.6304,-3.6342,-3.6389,-3.6425,-3.6459,-3.6503,-3.6536,-3.6573,-3.6603,-3.6656,-3.6693,-3.6726,-3.6766,-3.6778,-3.6797,-3.6805,-3.6794,-3.6792,-3.681,-3.681,-3.6823,-3.6823,-3.6823,-3.6823,0,-3.6159,-3.6205,-3.6255,-3.6321,-3.6338,-3.6363,-3.6419,-3.6445,-3.6481,-3.6523,-3.6535,-3.659,-3.6636,-3.6681,-3.6741,-3.6763,-3.6803,-3.6814,-3.6787,-3.6792,-3.6799,-3.6798,-3.6817,-3.6822,-3.6828,-3.6828,-3.6828,0,-3.6161,-3.6187,-3.6256,-3.6281,-3.6312,-3.6352,-3.6382,-3.643,-3.6459,-3.6518,-3.6538,-3.6586,-3.6627,-3.6697,-3.6742,-3.6788,-3.6801,-3.6805,-3.6808,-3.6796,-3.6802,-3.68,-3.6803,-3.6803,-3.6803,-3.6803,-3.6802,0,-3.616,-3.6182,-3.6224,-3.6274,-3.6309,-3.635,-3.6393,-3.6412,-3.6467,-3.6498,-3.6546,-3.6577,-3.664,-3.6687,-3.6739,-3.677,-3.6796,-3.6801,-3.6806,-3.6795,-3.6778,-3.6787,-3.6783,-3.68,-3.6801,-3.6801,-3.6801,-3.6801,-3.6152,-3.6177,-3.623,-3.6275,-3.6313,-3.6352,-3.6381,-3.642,-3.6461,-3.6516,-3.6541,-3.6589,-3.6638,-3.6711,-3.6742,-3.6779,-3.6786,-3.6793,-3.6794,-3.6796,-3.6793,-3.6772,-3.6788,-3.6789,-3.6789,-3.6789,-3.6789,0,-3.6153,-3.6189,-3.6231,-3.629,-3.6326,-3.6348,-3.6396,-3.6424,-3.6466,-3.651,-3.655,-3.6605,-3.6651,-3.67,-3.6748,-3.6769,-3.6782,-3.678,-3.6779,-3.6786,-3.6784,-3.6775,-3.6769,-3.6769,-3.6769,-3.6769,-3.6769,-3.6769,-3.6158,-3.6202,-3.623,-3.6293,-3.6329,-3.6376,-3.6402,-3.6438,-3.6474,-3.6534,-3.6572,-3.6605,-3.6651,-3.6703,-3.6747,-3.676,-3.6776,-3.6771,-3.6788,-3.6785,-3.6786,-3.6787,-3.6779,-3.6774,-3.6774,-3.6787,-3.6787,-3.6787]},{"header":{"parameterUnit":"m.s-1","parameterCategory":1,"la1":30.2991,"la2":30.254,"lo1":-89.0895,"lo2":-89.0444,"dy":0.0017,"dx":0.0017,"nx":28,"ny":28,"refTime":"2024-03-25T21:00:00:Z","depth":0,"parameterNumber":3,"parameterNumberName":"V-component_of_WINDS"},"data":[0,0,0,0,0,0,0,0,0,0,0,0,0,0,0,0,0,0,0,0,0,0,0,0,0,0,0,0,0,0,0,0,0,0,0,0,0,0,0,0,0,0,0,0,0,0,0,0,0,0,0,0,0,0,0,0,0,0,8.7879,8.7881,0,8.8005,8.8006,8.8008,8.8,8.7999,8.7997,8.7995,8.8118,8.8122,8.8127,0,0,0,0,0,0,0,0,0,0,0,0,0,8.763,8.7635,8.7879,8.7881,8.7882,8.8005,8.8006,8.8008,8.8001,8.7999,8.7996,8.7994,8.8116,8.8122,8.8128,0,0,0,0,0,0,0,0,0,0,0,0,0,8.7745,8.7636,8.7879,8.7894,8.7896,8.8004,8.8006,8.8008,8.8001,8.7999,8.7996,8.7993,8.8114,8.8121,8.8129,8.8228,0,0,8.8151,8.8154,0,0,0,0,0,0,0,0,8.7739,8.7754,8.789,8.7893,8.7896,8.7984,8.7963,8.8082,8.8002,8.7961,8.7995,8.7992,8.8075,8.8085,8.8115,8.8234,8.8239,8.8152,8.8156,8.8159,8.8162,0,0,0,0,0,0,0,8.7731,8.7749,8.7929,8.7892,8.7896,8.7893,8.7906,8.7986,8.8031,8.7965,8.7964,8.798,8.8076,8.8108,8.8117,8.8241,8.8152,8.8158,8.8163,8.8166,8.8452,8.8455,0,0,0,0,0,0,8.772,8.7742,8.7925,8.7932,8.7809,8.79,8.7915,8.7959,8.8031,8.8039,8.7982,8.7979,8.8096,8.8109,8.8122,8.8246,8.8159,8.8166,8.8171,8.8449,8.8452,8.8456,0,0,0,0,0,0,8.7715,8.7736,8.792,8.7837,8.7861,8.7907,8.7956,8.7962,8.7994,8.8044,8.8051,8.8006,8.8095,8.8111,8.8203,8.825,8.817,8.8176,8.8445,8.845,8.8454,8.8494,0,0,0,0,0,0,8.7708,8.7735,8.7773,8.7838,8.7865,8.8,8.7959,8.7967,8.8008,8.8005,8.8068,8.8076,8.8094,8.8192,8.821,8.8259,8.8182,8.8441,8.8447,8.8453,8.8488,8.8499,8.8508,0,0,0,0,0,8.7699,8.7777,8.7775,8.7797,8.7915,8.8003,8.8018,8.8038,8.8011,8.8051,8.8083,8.8074,8.8242,8.8201,8.8222,8.8273,8.8438,8.8445,8.8452,8.8484,8.8497,8.8508,0,0,0,0,0,0,8.7714,8.7786,8.7785,8.7887,8.7939,8.8001,8.8051,8.8051,8.811,8.8105,8.8125,8.814,8.8233,8.8262,8.8216,8.8375,8.8336,8.8348,8.8353,8.8366,8.8376,8.8368,8.8188,0,0,0,0,0,8.7729,8.7796,8.7855,8.7939,8.7966,8.8005,8.8043,8.8055,8.8109,8.813,8.8169,8.822,8.8285,8.8327,8.8389,8.8492,8.8507,8.8538,8.8548,8.8556,8.8566,8.8626,8.8641,8.8479,8.8479,8.8479,0,0,8.7761,8.7809,8.7849,8.7944,8.7986,8.8054,8.8023,8.8095,8.8146,8.814,8.8231,8.8261,8.832,8.8419,8.8465,8.8446,8.8614,8.8565,8.8571,8.8577,8.8635,8.865,8.8664,8.8484,8.8483,8.8482,0,0,8.7856,8.7898,8.7975,8.8018,8.8083,8.8109,8.8127,8.8191,8.8212,8.8304,8.8302,8.8362,8.8471,8.8515,8.8551,8.8665,8.866,8.8685,8.8737,8.8796,8.8809,8.882,8.8863,8.8878,8.8694,8.8694,8.8694,0,8.7887,8.7991,8.8013,8.8089,8.8131,8.8132,8.8211,8.8251,8.8331,8.836,8.8339,8.848,8.8519,8.863,8.8659,8.8687,8.871,8.8678,8.8805,8.8817,8.8828,8.887,8.8886,8.8697,8.8697,8.8696,8.8696,0,8.8028,8.81,8.8155,8.8237,8.8285,8.836,8.8394,8.844,8.8448,8.8476,8.857,8.8618,8.8691,8.8718,8.8725,8.8831,8.8818,8.8801,8.8762,8.8846,8.8886,8.8901,8.8701,8.87,8.8699,8.8698,0,0,8.8134,8.823,8.825,8.8289,8.8362,8.8418,8.8494,8.8569,8.8609,8.8665,8.873,8.8825,8.8811,8.8852,8.8864,8.8915,8.9007,8.8892,8.8894,8.8914,8.913,8.9144,8.9162,8.9003,8.9006,8.9009,8.9126,0,8.8238,8.8376,8.84,8.8521,8.859,8.8593,8.866,8.8712,8.874,8.8801,8.8832,8.89,8.8875,8.89,8.8951,8.8985,8.905,8.8976,8.9065,8.9068,8.9052,8.9182,8.9197,8.9305,8.9141,8.9143,8.9145,0,8.8377,8.8441,8.857,8.8637,8.8667,8.8727,8.8799,8.8857,8.8917,8.8934,8.8982,8.8989,8.9069,8.9026,8.9137,8.9086,8.9124,8.9146,8.9151,8.9161,8.9113,8.9198,8.9339,8.9356,8.9169,8.9167,8.9166,0,8.8445,8.8563,8.8656,8.8689,8.8769,8.8812,8.8846,8.8903,8.8948,8.901,8.9039,8.9109,8.9147,8.92,8.9226,8.9192,8.9336,8.9295,8.9354,8.9353,8.9385,8.9383,8.9536,8.9405,8.9405,8.9405,8.9404,0,8.856,8.8639,8.8689,8.8746,8.8836,8.8862,8.8949,8.8983,8.9034,8.9098,8.9103,8.9163,8.9192,8.9256,8.9276,8.9367,8.9383,8.94,8.9405,8.9401,8.9399,8.9427,8.9421,8.9409,8.9408,8.9407,8.9407,0,8.8651,8.8687,8.879,8.8859,8.8878,8.8941,8.9,8.9056,8.9085,8.9166,8.9186,8.9232,8.9308,8.9339,8.943,8.9444,8.9549,8.9546,8.953,8.9532,8.959,8.9585,8.9768,8.9795,8.9644,8.9646,8.9647,0,8.8723,8.8785,8.8862,8.8907,8.8944,8.9015,8.9062,8.909,8.9138,8.9213,8.926,8.9337,8.94,8.9521,8.9562,8.9633,8.9633,8.9693,8.9644,8.964,8.9638,8.9635,8.9642,8.9702,8.9704,8.9705,8.9706,0,8.8848,8.8864,8.8932,8.9007,8.9064,8.9124,8.9182,8.9218,8.9255,8.9309,8.9389,8.9438,8.9534,8.9611,8.9685,8.972,8.972,8.9721,8.9739,8.9737,8.9726,8.9735,8.9557,8.9717,8.9716,8.9715,8.9714,8.9714,8.8933,8.899,8.9055,8.9131,8.9179,8.9234,8.9292,8.9329,8.9397,8.948,8.9492,8.9578,8.9637,8.9738,8.9776,8.9843,8.9828,8.9852,8.9859,8.9866,8.9871,8.9714,8.9856,8.9856,8.9855,8.9855,8.9855,0,8.9061,8.9103,8.9174,8.9257,8.9318,8.9315,8.938,8.9431,8.9507,8.9564,8.9627,8.972,8.9795,8.9843,8.9919,8.9964,8.9966,8.9983,8.9981,8.9989,8.9879,8.9858,8.998,8.998,8.998,8.998,8.998,8.998,8.9135,8.9231,8.9255,8.9376,8.9417,8.9504,8.9542,8.9593,8.964,8.9744,8.9808,8.9839,8.9893,8.9973,9.0042,9.0054,9.0083,9.0102,9.0113,9.0009,8.9996,8.9984,8.9964,9.0107,9.0107,9.0218,9.0219,9.0219]}]]